Location: Bannatyne
(13.0833°N, 59.5333°W)
Time: 16:12:02
(UTC+00:00)

ISS - Pass Details

Date: 20 June 2021
Orbit: 419 x 421 km, 51.6° (Epoch: 02 August)

Event Time Altitude Azimuth Distance (km) Brightness Sun altitude
Exits shadow 07:32:19 11° 116° (ESE) 1,457 -0.7 -26.5°
Drops below altitude 10° 07:32:43 10° 109° (ESE) 1,488 -0.6 -26.4°
Sets 07:36:16 0° 70° (ENE) 2,351 1.3 -25.7°
